• In Österreich
  • Länderverzeichnis
  • Für 7 Tage
  • Wassertemperatur
  • Satellitenkarten
  • Wetterkarte
  • News
  • Widgets
  • user-avatar
    Anmelden

    Stündliche Wetter Nottingham

    Heute, 19 September, Mittwoch

    Zeit Temperatur Niederschläge Wind Luftdruck Luftfeuchtigkeit
    00:00 +16°C° 0.1 mm 7 m/S 750 mmHg 81%
    01:00 +16°C° 0 mm 6 m/S 750 mmHg 83%
    02:00 +15°C° 0 mm 6 m/S 750 mmHg 85%
    03:00 +15°C° 0 mm 5 m/S 750 mmHg 86%
    04:00 +15°C° 0 mm 5 m/S 750 mmHg 87%
    05:00 +15°C° 0 mm 5 m/S 750 mmHg 88%
    06:00 +14°C° 0 mm 6 m/S 750 mmHg 88%
    07:00 +15°C° 0 mm 7 m/S 750 mmHg 83%
    08:00 +16°C° 0 mm 8 m/S 749 mmHg 78%
    09:00 +17°C° 0 mm 10 m/S 749 mmHg 73%
    10:00 +18°C° 0 mm 10 m/S 749 mmHg 70%
    11:00 +19°C° 0 mm 11 m/S 749 mmHg 67%
    12:00 +19°C° 0 mm 12 m/S 749 mmHg 63%
    13:00 +19°C° 0.2 mm 11 m/S 749 mmHg 67%
    14:00 +18°C° 0.2 mm 10 m/S 749 mmHg 70%
    15:00 +17°C° 0.2 mm 9 m/S 749 mmHg 73%
    16:00 +16°C° 0 mm 8 m/S 750 mmHg 70%
    17:00 +15°C° 0 mm 7 m/S 751 mmHg 68%
    18:00 +14°C° 0 mm 7 m/S 752 mmHg 65%
    19:00 +14°C° 0 mm 6 m/S 752 mmHg 65%
    20:00 +13°C° 0 mm 6 m/S 753 mmHg 65%
    21:00 +11°C° 0 mm 6 m/S 753 mmHg 65%
    22:00 +12°C° 0 mm 5 m/S 753 mmHg 68%
    23:00 +12°C° 0 mm 5 m/S 753 mmHg 70%

    Morgen, 20 September, Donnerstag

    Zeit Temperatur Niederschläge Wind Luftdruck Luftfeuchtigkeit
    00:00 +10°C° 0 mm 5 m/S 753 mmHg 73%
    01:00 +11°C° 0.6 mm 4 m/S 753 mmHg 78%
    02:00 +11°C° 0.6 mm 3 m/S 753 mmHg 82%
    03:00 +11°C° 0.6 mm 3 m/S 752 mmHg 87%
    04:00 +12°C° 1.2 mm 2 m/S 752 mmHg 88%
    05:00 +12°C° 1.2 mm 2 m/S 752 mmHg 89%
    06:00 +12°C° 1.2 mm 2 m/S 752 mmHg 90%
    07:00 +13°C° 0.3 mm 1 m/S 752 mmHg 88%
    08:00 +13°C° 0.3 mm 1 m/S 752 mmHg 86%
    09:00 +13°C° 0.3 mm 1 m/S 752 mmHg 84%
    10:00 +14°C° 0.5 mm 2 m/S 752 mmHg 85%
    11:00 +14°C° 0.5 mm 2 m/S 751 mmHg 86%
    12:00 +15°C° 0.5 mm 2 m/S 750 mmHg 86%
    13:00 +14°C° 1.4 mm 3 m/S 750 mmHg 88%
    14:00 +15°C° 1.4 mm 4 m/S 749 mmHg 89%
    15:00 +15°C° 1.4 mm 5 m/S 748 mmHg 91%
    16:00 +16°C° 1.9 mm 6 m/S 747 mmHg 89%
    17:00 +16°C° 1.9 mm 8 m/S 745 mmHg 87%
    18:00 +17°C° 1.9 mm 10 m/S 744 mmHg 85%
    19:00 +17°C° 1.9 mm 10 m/S 743 mmHg 86%
    20:00 +17°C° 1.9 mm 10 m/S 742 mmHg 86%
    21:00 +17°C° 1.9 mm 10 m/S 742 mmHg 87%
    22:00 +16°C° 0.4 mm 10 m/S 742 mmHg 85%
    23:00 +16°C° 0.4 mm 10 m/S 741 mmHg 83%

    übermorgen, 21 September, Freitag

    Zeit Temperatur Niederschläge Wind Luftdruck Luftfeuchtigkeit
    00:00 +16°C° 0.4 mm 10 m/S 741 mmHg 82%
    01:00 +13°C° 0.1 mm 9 m/S 742 mmHg 81%
    02:00 +11°C° 0.1 mm 8 m/S 743 mmHg 81%
    03:00 +9°C° 0.1 mm 8 m/S 744 mmHg 81%
    04:00 +9°C° 0 mm 7 m/S 745 mmHg 81%
    05:00 +8°C° 0 mm 6 m/S 746 mmHg 81%
    06:00 +8°C° 0 mm 6 m/S 747 mmHg 81%
    07:00 +8°C° 0 mm 6 m/S 748 mmHg 76%
    08:00 +9°C° 0 mm 7 m/S 748 mmHg 71%
    09:00 +10°C° 0 mm 8 m/S 749 mmHg 66%
    10:00 +11°C° 0 mm 8 m/S 749 mmHg 61%
    11:00 +12°C° 0 mm 8 m/S 750 mmHg 57%
    12:00 +12°C° 0 mm 8 m/S 750 mmHg 52%
    13:00 +13°C° 0 mm 8 m/S 751 mmHg 52%
    14:00 +13°C° 0 mm 8 m/S 751 mmHg 52%
    15:00 +13°C° 0 mm 8 m/S 751 mmHg 52%
    16:00 +12°C° 0 mm 7 m/S 752 mmHg 57%
    17:00 +11°C° 0 mm 6 m/S 752 mmHg 62%
    18:00 +10°C° 0 mm 5 m/S 753 mmHg 67%
    19:00 +9°C° 0 mm 5 m/S 754 mmHg 69%
    20:00 +9°C° 0 mm 5 m/S 754 mmHg 72%
    21:00 +8°C° 0 mm 4 m/S 755 mmHg 75%
    22:00 +8°C° 0 mm 4 m/S 756 mmHg 77%
    23:00 +8°C° 0 mm 4 m/S 756 mmHg 79%

    22 September, Samstag

    Zeit Temperatur Niederschläge Wind Luftdruck Luftfeuchtigkeit
    00:00 +7°C° 0 mm 4 m/S 756 mmHg 81%
    01:00 +7°C° 0 mm 4 m/S 757 mmHg 81%
    02:00 +7°C° 0 mm 4 m/S 757 mmHg 82%
    03:00 +7°C° 0 mm 4 m/S 758 mmHg 82%
    04:00 +7°C° 0 mm 4 m/S 758 mmHg 82%
    05:00 +6°C° 0 mm 4 m/S 759 mmHg 82%
    06:00 +6°C° 0 mm 4 m/S 759 mmHg 82%
    07:00 +8°C° 0 mm 4 m/S 760 mmHg 76%
    08:00 +9°C° 0 mm 5 m/S 760 mmHg 70%
    09:00 +10°C° 0 mm 5 m/S 761 mmHg 65%
    10:00 +12°C° 0 mm 5 m/S 761 mmHg 61%
    11:00 +13°C° 0 mm 5 m/S 761 mmHg 58%
    12:00 +13°C° 0 mm 5 m/S 761 mmHg 54%
    13:00 +14°C° 0 mm 5 m/S 761 mmHg 54%
    14:00 +14°C° 0 mm 4 m/S 761 mmHg 53%
    15:00 +14°C° 0 mm 4 m/S 760 mmHg 52%
    16:00 +13°C° 0 mm 3 m/S 760 mmHg 56%
    17:00 +13°C° 0 mm 2 m/S 760 mmHg 59%
    18:00 +12°C° 0 mm 2 m/S 760 mmHg 63%
    19:00 +12°C° 0 mm 2 m/S 759 mmHg 64%
    20:00 +12°C° 0 mm 2 m/S 759 mmHg 65%
    21:00 +10°C° 0 mm 2 m/S 758 mmHg 66%
    22:00 +10°C° 1.1 mm 3 m/S 757 mmHg 72%
    23:00 +8°C° 1.1 mm 4 m/S 755 mmHg 78%

    23 September, Sonntag

    Zeit Temperatur Niederschläge Wind Luftdruck Luftfeuchtigkeit
    00:00 +8°C° 1.1 mm 4 m/S 754 mmHg 84%
    01:00 +8°C° 3.7 mm 6 m/S 752 mmHg 87%
    02:00 +8°C° 3.7 mm 7 m/S 750 mmHg 89%
    03:00 +6°C° 3.7 mm 9 m/S 747 mmHg 91%
    04:00 +7°C° 5.1 mm 9 m/S 745 mmHg 90%
    05:00 +8°C° 5.1 mm 9 m/S 742 mmHg 90%
    06:00 +9°C° 5.1 mm 10 m/S 739 mmHg 89%
    07:00 +11°C° 2 mm 9 m/S 737 mmHg 88%
    08:00 +11°C° 2 mm 9 m/S 735 mmHg 87%
    09:00 +12°C° 2 mm 8 m/S 732 mmHg 86%
    10:00 +12°C° 0.9 mm 7 m/S 731 mmHg 86%
    11:00 +13°C° 0.9 mm 6 m/S 729 mmHg 86%
    12:00 +12°C° 0.9 mm 5 m/S 728 mmHg 86%
    13:00 +12°C° 1.1 mm 5 m/S 728 mmHg 87%
    14:00 +11°C° 1.1 mm 6 m/S 728 mmHg 88%
    15:00 +11°C° 1.1 mm 6 m/S 729 mmHg 88%
    16:00 +11°C° 0.3 mm 8 m/S 731 mmHg 87%
    17:00 +11°C° 0.3 mm 11 m/S 734 mmHg 85%
    18:00 +9°C° 0.3 mm 14 m/S 736 mmHg 84%
    19:00 +9°C° 0.1 mm 13 m/S 739 mmHg 81%
    20:00 +9°C° 0.1 mm 13 m/S 742 mmHg 78%
    21:00 +9°C° 0.1 mm 12 m/S 746 mmHg 76%
    22:00 +9°C° 0.1 mm 11 m/S 748 mmHg 75%
    23:00 +9°C° 0.1 mm 11 m/S 751 mmHg 74%

    24 September, Montag

    Zeit Temperatur Niederschläge Wind Luftdruck Luftfeuchtigkeit
    00:00 +9°C° 0.1 mm 10 m/S 753 mmHg 72%
    01:00 +8°C° 0 mm 9 m/S 755 mmHg 73%
    02:00 +9°C° 0 mm 8 m/S 756 mmHg 73%
    03:00 +8°C° 0 mm 7 m/S 758 mmHg 74%
    04:00 +8°C° 0 mm 6 m/S 759 mmHg 75%
    05:00 +7°C° 0 mm 6 m/S 760 mmHg 77%
    06:00 +7°C° 0 mm 5 m/S 762 mmHg 79%
    07:00 +8°C° 0 mm 5 m/S 763 mmHg 75%
    08:00 +8°C° 0 mm 5 m/S 763 mmHg 71%
    09:00 +9°C° 0 mm 6 m/S 764 mmHg 67%
    10:00 +10°C° 0 mm 5 m/S 765 mmHg 63%
    11:00 +12°C° 0 mm 5 m/S 765 mmHg 58%
    12:00 +12°C° 0 mm 4 m/S 766 mmHg 54%
    13:00 +13°C° 0 mm 4 m/S 766 mmHg 53%
    14:00 +13°C° 0 mm 4 m/S 766 mmHg 52%
    15:00 +13°C° 0 mm 3 m/S 766 mmHg 51%
    16:00 +12°C° 0 mm 3 m/S 766 mmHg 56%
    17:00 +12°C° 0 mm 2 m/S 766 mmHg 60%
    18:00 +11°C° 0 mm 1 m/S 766 mmHg 65%
    19:00 +10°C° 0 mm 1 m/S 767 mmHg 67%
    20:00 +10°C° 0 mm 1 m/S 767 mmHg 70%
    21:00 +9°C° 0 mm 1 m/S 767 mmHg 72%
    22:00 +9°C° 0 mm 1 m/S 767 mmHg 75%
    23:00 +8°C° 0 mm 2 m/S 766 mmHg 77%
    Mehr zeigen